Regional Weather Roundup
Issued by NWS

Home | Current Version | Previous Version | Graphics & Text | Print | Product List | Glossary On
Versions: 1 2 3 4 5 6 7 8 9 10 11 12 13 14 15 16 17 18 19 20 21 22 23 24 25 26 27 28 29 30 31 32 33 34 35 36 37 38 39 40 41 42 43 44 45 46 47 48 49 50
000
ASUS43 KOAX 201802
RWRNE

WEATHER ROUNDUP FOR NEBRASKA
NATIONAL WEATHER SERVICE OMAHA NE
1200 PM CST SAT DEC 20 2014

NOTES: SATELLITE DATA IS BEING USED TO AUGMENT CLOUD COVER ABOVE
       12000 FEET.
       "FAIR" INDICATES FEW OR NO CLOUDS BELOW 12,000 FEET WITH NO
       SIGNIFICANT WEATHER AND/OR OBSTRUCTIONS TO VISIBILITY.

  * THESE STATIONS DO NOT REPORT WEATHER SUCH AS RAIN...SNOW OR FOG.

NEZ001>004-019>022-054>056-201900-
NEBRASKA PANHANDLE

CITY           SKY/WX    TMP DP  RH WIND       PRES   REMARKS
SCOTTSBLUFF    CLOUDY    30  24  78 SE3       29.98F
6HR MIN TEMP:  11; 6HR MAX TEMP:  33;

ALLIANCE       CLOUDY    33  27  78 W7        29.95F WCI  27
6HR MIN TEMP:   6; 6HR MAX TEMP:  33;

CHADRON        PTSUNNY   39  28  64 SW5       29.95F
6HR MIN TEMP:  16; 6HR MAX TEMP:  39;

SIDNEY         PTSUNNY   41  26  55 W10       29.99F
6HR MIN TEMP:  19; 6HR MAX TEMP:  43;

$$

NEZ057>060-069>072-079>082-201900-
SOUTHWEST NEBRASKA

CITY           SKY/WX    TMP DP  RH WIND       PRES   REMARKS
NORTH PLATTE   PTSUNNY   34  26  72 W9        29.99F WCI  27
6HR MIN TEMP:  15; 6HR MAX TEMP:  34;

IMPERIAL       CLOUDY    35  25  66 W8        30.00F WCI  29
6HR MIN TEMP:  18; 6HR MAX TEMP:  35;

MCCOOK         PTSUNNY   36  26  67 W8        30.02F WCI  30
6HR MIN TEMP:  20; 6HR MAX TEMP:  36;

$$

NEZ005>010-023>029-035>040-094-201900-
NORTH CENTRAL NEBRASKA

CITY           SKY/WX    TMP DP  RH WIND       PRES   REMARKS
VALENTINE      PTSUNNY   31  25  78 SW3       29.95F
6HR MIN TEMP:  12; 6HR MAX TEMP:  32;

BROKEN BOW     MOSUNNY   35  29  78 CALM      29.98F
6HR MIN TEMP:  17; 6HR MAX TEMP:  35;

$$

NEZ041-046>049-061>064-073>077-083>087-201900-
SOUTH CENTRAL NEBRASKA

CITY           SKY/WX    TMP DP  RH WIND       PRES   REMARKS
GRAND ISLAND   FOG       30  29  96 S6        30.04F VSB 1/2 WCI  24
6HR MIN TEMP:  28; 6HR MAX TEMP:  30;

HASTINGS       FOG       32  28  85 S6        30.04F VSB 3/4 WCI  26
6HR MIN TEMP:  26; 6HR MAX TEMP:  34;

KEARNEY *      SUNNY     30  28  93 S8        30.02F WCI  23
$$

NEZ011>018-030>034-042>045-201900-
NORTHEAST NEBRASKA

CITY           SKY/WX    TMP DP  RH WIND       PRES   REMARKS
NORFOLK        CLOUDY    33  31  92 S8        30.04F FOG     WCI  26
6HR MIN TEMP:  32; 6HR MAX TEMP:  33;

COLUMBUS *     CLOUDY    32  27  80 S6        30.08F WCI  26
TEKAMAH        CLOUDY    34  31  88 S7        30.11F WCI  28
6HR MIN TEMP:  32; 6HR MAX TEMP:  34;

$$

NEZ050>053-065>068-078-088>093-201900-
SOUTHEAST NEBRASKA

CITY           SKY/WX    TMP DP  RH WIND       PRES   REMARKS
LINCOLN        CLOUDY    33  31  92 SW3       30.11F FOG
6HR MIN TEMP:  32; 6HR MAX TEMP:  33;

OMAHA EPPLEY   CLOUDY    33  31  92 SE8       30.12F FOG     WCI  26
6HR MIN TEMP:  32; 6HR MAX TEMP:  34; 6HR PCP: TRACE;

FALLS CITY     CLOUDY    34  31  88 SW8       30.12F FOG     WCI  27
6HR MIN TEMP:  32; 6HR MAX TEMP:  34;

$$

NEZ044-045-051>053-067-201900-
OMAHA AREA

CITY           SKY/WX    TMP DP  RH WIND       PRES   REMARKS
OMAHA EPPLEY   CLOUDY    33  31  92 SE8       30.12F FOG     WCI  26
6HR MIN TEMP:  32; 6HR MAX TEMP:  34; 6HR PCP: TRACE;

OFFUTT AFB     CLOUDY    33  31  93 S6        30.10F WCI  28
$$


USA.gov is the U.S. government's official web portal to all federal, state and local government web resources and services.